Location: ???????????
(38.4169°N, 22.8247°E)
Time: 14:44:11
(UTC+00:00)

Daily predictions for brighter satellites

Satellite Brightness Start Highest point End
(mag) Time Altitude Azimuth Time Altitude Azimuth Time Altitude Azimuth
Tsikada Rocket 4.1 18:07:31 10° S 18:13:34 60° E 18:19:43 10° NNE
SPOT 1/Viking Rocket 3.9 18:11:30 10° S 18:16:38 69° WSW 18:21:46 10° NNW
USA 290 4.5 18:14:02 10° NW 18:16:42 24° WSW 18:19:21 10° SSW
Cosmos 921 Rocket 3.7 18:15:47 10° SSW 18:20:13 64° WNW 18:24:41 10° N
Resurs 01 Rocket 1.7 18:15:53 10° SSE 18:20:17 70° ENE 18:24:41 10° N
Cosmos 1371 Rocket 4.3 18:16:16 10° NNW 18:21:37 77° WSW 18:26:57 10° S
Okean O Rocket 1.7 18:20:32 10° SSE 18:24:53 64° ENE 18:29:17 10° N
Cosmos 1766 Rocket 3.8 18:23:24 10° N 18:27:48 56° E 18:32:10 10° SSE
Cosmos 44 4.5 18:24:53 10° NW 18:29:08 36° WSW 18:33:11 10° S
Cosmos 1743 2.8 18:26:17 10° N 18:29:49 51° E 18:33:21 10° SSE
Cosmos 2292 Rocket 4.2 18:25:27 10° S 18:31:51 83° E 18:36:43 10° N
ATLAS 3B R/B 3.8 18:24:30 10° NW 18:31:58 49° WSW 18:39:12 10° S
CARTOSAT-1 3.5 18:27:51 10° SSE 18:32:06 87° E 18:36:23 10° NNW
CZ-4B R/B 3.4 18:27:46 10° S 18:33:04 70° WSW 18:38:22 10° NNW
Lacrosse 5 4.1 18:31:42 10° WNW 18:35:09 18° WSW 18:38:37 10° SSW
Aureole 3 Rocket 3.8 18:35:34 10° N 18:40:30 88° E 18:47:30 10° S
OAO 3 Rocket 4.4 18:40:38 10° SSW 18:44:14 21° SSE 18:46:49 14° ESE
CZ-4 R/B 3.5 18:41:36 10° SSW 18:44:43 24° W 18:47:54 10° NW
MOS 1-B Rocket 4.4 18:41:03 10° SSE 18:48:39 89° ENE 18:55:07 10° NNW
Cosmos 2297 4.5 18:43:10 10° NNW 18:48:42 52° WSW 18:54:10 10° S
CSL-04 Rocket 4.0 18:45:04 10° S 18:50:18 64° WSW 18:55:33 10° NNW
Cosmos 1340 Rocket 4.2 18:50:17 17° ESE 18:51:51 21° E 18:54:53 10° NE
H-2A R/B 2.1 18:51:54 10° SW 18:52:35 11° SSW 18:52:35 11° SSW
SPOT 5 3.2 18:50:53 16° SE 18:54:07 42° ENE 18:58:15 10° N
USA 186 4.1 18:52:34 10° SSW 18:55:09 22° W 18:57:46 10° NW
USA 306 3.0 18:51:53 10° NW 18:55:38 56° NE 18:58:10 20° ESE
CZ-4C R/B 3.3 18:52:25 10° NNE 18:56:22 73° ESE 19:00:26 10° S
Ariane Rocket 4.4 18:53:58 14° ESE 18:56:52 23° ENE 19:00:47 10° NNE
Cosmos 1818 4.2 19:00:25 10° S 19:05:14 34° ESE 19:10:06 10° NE
IRS-1C Rocket 4.3 19:02:35 18° SE 19:06:18 54° ENE 19:11:26 10° N
Cosmos 1603 4.0 19:03:09 10° SSW 19:08:47 72° WNW 19:14:31 10° NNE
Cosmos 2279 Rocket 4.0 19:03:19 10° N 19:09:29 68° E 19:14:19 17° SSE
ERS-1 Rocket 3.5 19:09:19 22° SE 19:12:12 43° ENE 19:16:57 10° N
Cosmos 2369 Rocket 3.2 19:07:48 10° NW 19:13:03 42° WSW 19:18:17 10° S
Okean-O 2.8 19:10:08 15° S 19:13:46 71° WSW 19:18:11 10° NNW
Cosmos 1726 1.5 19:11:15 10° N 19:14:22 85° ENE 19:15:43 31° S
USA 245 3.8 19:14:41 20° ENE 19:14:41 20° ENE 19:16:17 10° NNE
Hubble Space Telescope 2.2 19:11:47 10° SW 19:14:33 19° S 19:14:33 19° S
Cosmos 614 Rocket 4.4 19:13:21 19° SSE 19:16:43 42° ESE 19:21:36 10° NNE
Okean 1 3.1 19:14:39 21° S 19:17:08 68° E 19:21:00 10° NNE
Cosmos 1452 Rocket 3.5 19:15:10 10° NNW 19:20:26 80° WSW 19:23:55 21° SSE
Cosmos 1634 Rocket 4.4 19:17:02 10° NNW 19:23:10 61° W 19:29:14 10° S
USA 59 Rocket 1.6 19:22:13 10° N 19:25:56 29° NE 19:28:31 20° E
Cosmos 1500 Rocket 3.7 19:22:55 10° N 19:27:08 54° E 19:28:44 34° SE
Meteor 1-19 Rocket 4.2 19:22:49 15° S 19:27:43 70° E 19:33:25 10° NNE
DELTA 2 R/B (1) 3.5 19:28:05 10° WSW 19:33:37 62° SSE 19:39:08 10° E
Molniya-1 3.5 19:34:21 15° SSW 19:36:53 77° ESE 19:43:37 10° NE
Cosmos 1805 Rocket 3.6 19:34:09 10° N 19:38:32 61° E 19:39:53 40° SE
Sich 1 3.1 19:35:33 10° N 19:39:54 64° E 19:41:12 42° SE
SeaSat 1 4.4 19:37:09 10° SSW 19:40:50 21° WSW 19:44:32 10° WNW
Cosmos 1536 3.2 19:40:16 10° NNW 19:44:07 59° W 19:45:45 31° SSW
Terra 1.7 19:43:43 38° SSE 19:45:32 79° ENE 19:50:16 10° N
ISS -2.2 19:42:53 10° WNW 19:45:39 24° SW 19:45:49 24° SW
GEOS 3 Rocket 4.1 19:41:08 10° NE 19:45:50 35° ESE 19:46:02 35° ESE
Meteor 1-11 Rocket 3.9 19:40:51 10° NNW 19:46:35 75° W 19:50:02 26° S
ARGOS Delta rocket 4.0 19:46:10 29° S 19:48:40 73° W 19:53:24 10° NNW
Spot 1 4.2 19:45:33 10° NNE 19:49:37 49° ESE 19:50:04 47° ESE
NOSS 3-3 (A) 3.5 19:51:36 10° SSW 19:56:51 82° ESE 20:02:52 10° NE
Cosmos 1302 Rocket 3.9 19:53:42 10° NNW 19:58:56 90° WSW 20:00:37 44° SSE
Cosmos 1607 4.5 19:58:37 36° SE 19:59:24 37° ESE 20:05:16 10° NE
USA 281 3.8 19:58:04 29° ESE 20:00:56 45° ENE 20:07:07 10° N
Okean O Rocket 4.5 20:00:44 10° W 20:01:32 10° W 20:02:21 10° W
Meteor 2-10 4.2 19:58:41 10° NNW 20:04:03 67° W 20:06:12 35° SSW
Landsat 4 3.9 20:07:17 53° WSW 20:07:25 54° WSW 20:10:51 10° NNW
MOS 1 Rocket 3.5 20:06:32 46° S 20:08:09 88° WSW 20:13:32 10° NNW
FALCON 9 R/B 3.7 20:05:17 10° W 20:11:03 51° S 20:19:08 28° SE
Spot 2 Rocket 3.7 20:10:35 41° SSW 20:12:14 65° WSW 20:17:15 10° NNW
Cosmos 1340 3.3 20:15:09 10° NNW 20:18:12 42° W 20:18:12 42° W
Meteor 2-4 Rocket 3.7 20:16:17 42° S 20:18:25 85° E 20:24:24 10° N
NOSS 2-1 (C) 3.8 20:14:37 10° NNW 20:18:55 86° ENE 20:19:55 60° SE
Cosmos 1743 Rocket 4.4 20:17:20 10° NNW 20:21:34 45° W 20:22:37 38° SW
Lacrosse 4 Rocket 1.6 20:18:51 10° NNW 20:22:48 58° NE 20:22:48 58° NE
Cosmos 1428 Rocket 4.5 20:20:29 35° SSW 20:23:16 78° W 20:29:23 10° N
IRIDIUM 104 4.2 20:23:40 10° N 20:28:54 77° E 20:29:33 66° SSE
NOSS 3-3 (C) 4.2 20:24:47 10° SW 20:29:57 60° NW 20:35:59 10° NNE
Cosmos 1626 3.4 20:33:20 33° N 20:33:20 33° N 20:35:14 10° N
Cosmos 1151 Rocket 4.5 20:32:39 24° WSW 20:34:19 32° WNW 20:38:15 10° NNW
CZ-3 Stage 3 4.3 19:53:42 10° WSW 20:34:22 55° S 20:39:59 29° ESE
Ariane Rocket 3.9 20:34:06 33° SW 20:35:30 40° W 20:40:17 10° NNW
IRIDIUM 114 4.2 20:32:47 10° N 20:38:02 87° W 20:38:41 69° S
Cosmos 1092 Rocket 4.0 20:37:23 43° SSW 20:39:36 77° W 20:45:57 10° N
ARIANE 5 R/B 3.7 20:41:04 33° ENE 20:41:04 33° ENE 20:44:28 10° N
CZ-2C R/B 4.2 20:40:07 10° NNE 20:43:34 46° NE 20:43:34 46° NE
Cosmos 1833 Rocket 2.5 20:43:39 65° SSW 20:44:31 86° ESE 20:50:09 10° NNE
MetOp-A 3.8 20:44:25 67° WSW 20:44:36 68° WSW 20:49:32 10° NNW
IRIDIUM 103 4.4 20:41:58 10° N 20:47:10 71° W 20:47:49 63° SW
Cosmos 1328 Rocket 4.0 20:50:56 55° WNW 20:50:56 55° WNW 20:55:07 10° N
Cosmos 724 4.1 20:51:21 71° SSE 20:51:50 76° ESE 20:57:41 10° NNE
Cosmos 407 Rocket 4.3 20:54:39 39° ENE 20:54:39 39° ENE 20:58:35 10° NNE
Cosmos 2082 Rocket 3.6 20:57:01 25° ENE 20:57:01 25° ENE 21:00:21 10° NE
Cosmos 1656 3.6 20:51:33 10° NNW 20:57:00 68° WSW 20:57:19 67° SW
Cosmos 1766 4.4 20:53:37 10° N 20:56:04 39° N 20:56:04 39° N
Cosmos 1515 Rocket 4.1 21:01:28 52° NNE 21:01:28 52° NNE 21:04:47 10° N
Cosmos 44 Rocket 3.8 21:01:46 10° NNW 21:06:18 49° NE 21:06:18 49° NE
Cosmos 1975 4.5 21:03:16 10° NNW 21:06:07 28° WNW 21:06:07 28° WNW
Cosmos 2360 4.1 21:00:59 10° NNW 21:06:44 83° ENE 21:06:58 80° ESE
USA 59 Rocket 1.6 21:11:24 10° NW 21:15:05 33° WSW 21:15:05 33° WSW
Cosmos 1470 Rocket 4.2 21:12:00 10° NNW 21:15:31 52° NW 21:15:31 52° NW
Cosmos 2251 Rocket 3.8 21:18:50 57° NE 21:18:50 57° NE 21:23:13 10° NNE
DELTA 2 R/B (1) 3.5 21:14:24 10° W 21:20:01 80° N 21:20:15 78° NNE
Cosmos 1633 Rocket 4.4 21:16:16 10° NNW 21:19:46 34° WNW 21:19:46 34° WNW
Cosmos 1417 Rocket 4.3 21:27:53 10° N 21:34:11 80° E 21:34:24 79° ESE
USA 281 4.2 21:44:56 32° WSW 21:45:27 33° WSW 21:51:17 10° NW
Cosmos 1697 Rocket 2.9 21:42:12 10° NNW 21:47:10 61° WNW 21:47:10 61° WNW
In-Cosmos 22 4.2 21:49:38 81° NNW 21:49:38 81° NNW 21:55:05 10° N
ALOS 2 3.7 21:51:27 42° NNE 21:51:27 42° NNE 21:54:30 10° N
USA 267 4.0 21:44:04 10° ENE 21:48:32 36° E 21:48:32 36° E
Cosmos 1980 Rocket 2.3 21:51:55 10° NNW 21:57:19 68° NE 21:57:19 68° NE
H-2A R/B 4.1 22:02:00 30° NW 22:02:00 30° NW 22:04:29 10° NNW
Lacrosse 5 rocket 3.4 21:59:09 10° NNW 22:02:19 23° NNE 22:02:19 23° NNE
S3M 4.0 21:57:10 10° N 22:03:32 72° W 22:03:41 72° WSW
NOSS 3-4 (A) 3.8 22:01:51 10° NW 22:09:03 85° WSW 22:10:02 71° SSE
NOSS 3-4 (C) 3.8 22:01:57 10° NW 22:09:09 86° WSW 22:10:10 71° SSE
Cosmos 2315 Rocket 3.9 22:15:35 10° N 22:21:53 77° W 22:21:53 77° W
Cosmos 2369 3.8 22:17:05 10° NNW 22:22:17 74° N 22:22:17 74° N
COSMOS 2406 3.5 22:27:11 59° WNW 22:27:11 59° WNW 22:32:51 10° NNE
Meteor 1-12 Rocket 4.3 22:21:24 10° NNW 22:27:02 77° NW 22:27:02 77° NW
ATLAS CENTAUR R/B 4.2 22:15:59 10° NW 22:28:48 56° WSW 22:30:30 51° SSW
Cosmos 1763 Rocket 4.2 22:29:30 10° NNW 22:33:32 49° NW 22:33:32 49° NW
Cosmos 540 Rocket 3.9 22:30:15 10° NNW 22:34:20 57° NNW 22:34:20 57° NNW
Cosmos 468 Rocket 4.4 22:30:26 10° NNW 22:34:47 61° N 22:34:47 61° N
SL-16 R/B 3.4 22:31:02 10° N 22:36:08 33° ENE 22:37:20 30° E
Cosmos 1244 Rocket 4.4 22:36:58 79° ENE 22:36:58 79° ENE 22:43:02 10° N
H-2A R/B 3.3 22:34:44 10° N 22:37:41 41° N 22:37:41 41° N
Cosmos 2082 Rocket 3.2 22:38:49 37° WNW 22:39:25 38° WNW 22:44:44 10° N
Cosmos 676 Rocket 4.5 22:41:34 56° NW 22:41:34 56° NW 22:46:16 10° N
Cosmos 2360 Rocket 4.3 22:45:18 10° N 22:49:35 22° NE 22:52:52 14° E
Cosmos 1733 Rocket 4.5 22:45:34 10° NNW 22:48:07 34° NNW 22:48:07 34° NNW
Meteor 2-20 Rocket 4.4 22:46:26 10° N 22:52:57 87° E 22:53:06 85° SE
Okean 1-7 4.2 23:09:28 39° NNW 23:09:28 39° NNW 23:12:18 10° N
Cosmos 2237 4.3 23:03:14 10° NNW 23:08:57 71° ENE 23:09:03 70° ENE
SL-4 R/B 3.5 23:21:10 34° NE 23:21:10 34° NE 23:23:43 10° NE
Cosmos 1703 Rocket 4.5 23:22:16 47° N 23:22:16 47° N 23:25:30 10° N
Cosmos 2278 3.7 23:15:48 10° NNW 23:21:02 73° WNW 23:21:02 73° WNW
Timation 1 Rocket 4.3 23:25:33 74° W 23:25:44 74° WNW 23:31:42 10° NNE
Cosmos 2322 Rocket 2.6 23:26:06 10° NNW 23:31:41 59° ENE 23:32:46 50° ESE
Cosmos 1300 Rocket 4.5 23:29:04 10° N 23:32:35 43° NE 23:32:35 43° NE
SJ 16-02 2.2 23:34:22 47° NE 23:34:22 47° NE 23:37:32 10° NNE
USA 267 3.7 23:26:56 10° NE 23:33:15 54° NW 23:35:52 34° W
Cosmos 968 Rocket 3.5 23:37:40 69° NNW 23:37:40 69° NNW 23:42:25 10° NNE
Cosmos 1980 Rocket 4.4 23:37:54 10° WNW 23:39:03 13° WNW 23:39:03 13° WNW
Cosmos 2333 Rocket 2.9 23:38:46 10° NNW 23:44:22 52° ENE 23:46:35 34° ESE
Resurs 1-4 Rocket 3.3 23:40:38 10° NE 23:45:18 32° E 23:46:04 30° ESE
Cosmos 2242 Rocket 4.0 23:47:02 61° NE 23:47:02 61° NE 23:50:53 10° NNE
Cosmos 1953 4.3 23:43:50 10° NNW 23:45:27 21° NW 23:45:27 21° NW
CZ-2D R/B 3.2 23:45:05 10° NNE 23:49:58 34° E 23:51:00 31° ESE
Cosmos 1745 Rocket 4.1 23:49:42 54° WSW 23:50:17 56° W 23:56:28 10° N
Tiangong 0.9 23:58:17 12° ENE 23:58:17 12° ENE 23:58:37 10° ENE
